Location: Ampid
(14.6837°N, 121.1151°E)
Time: 21:13:25
(UTC+00:00)

Daily predictions for brighter satellites

Satellite Brightness Start Highest point End
(mag) Time Altitude Azimuth Time Altitude Azimuth Time Altitude Azimuth
Milstar 3 Cent rocket 4.1 12:01:06 10° WNW 12:06:04 21° N 12:06:07 21° N
ARGOS 4.5 12:15:22 36° WNW 12:15:22 36° WNW 12:19:27 10° NNW
NOSS 3-2 (A) 4.2 12:11:46 10° NNW 12:19:01 71° NNW 12:19:01 71° NNW
ATLAS 2A CENTAUR R/B 4.5 12:25:37 10° WNW 13:06:24 67° NNW 13:06:24 67° NNW
Cosmos 2333 Rocket 4.0 19:15:12 25° SE 19:16:36 28° ESE 19:21:25 10° NE
Cosmos 2333 4.4 19:40:15 69° ENE 19:40:15 69° ENE 19:45:34 10° NNE
Cosmos 2360 Rocket 4.1 19:45:54 18° N 19:45:54 18° N 19:47:21 10° N
Aurora 2 Rocket 4.3 19:53:08 20° SE 19:53:08 20° SE 19:55:27 10° E
H-2A R/B 2.5 19:55:56 10° SSE 20:00:10 62° ENE 20:04:30 10° N
Atlas Centaur 2 3.6 20:02:54 16° SSE 20:04:00 17° SE 20:06:56 10° E
Delta 202 3.9 20:06:17 50° NW 20:07:23 59° N 20:12:35 10° E
SWIFT 3.7 20:07:24 28° SSE 20:07:40 29° SSE 20:11:22 10° E
GPS 2-15 Rocket1 2.9 20:08:33 80° NW 20:08:45 83° NNE 20:13:26 10° ESE
Cosmos 2263 Rocket 2.1 20:09:34 37° NW 20:11:43 64° WSW 20:17:20 10° S
ALOS 2.8 20:07:35 10° NNE 20:12:10 58° E 20:16:44 10° S
CZ-2C R/B 3.6 20:10:54 10° N 20:13:44 28° NNW 20:13:44 28° NNW
ADEOS Rocket 3.8 20:13:25 10° SSE 20:20:31 61° ENE 20:26:54 10° N
Meteor 1-11 Rocket 3.6 20:15:27 10° NNW 20:20:58 62° W 20:26:25 10° S
GPS 2-12 Rocket1 3.7 20:22:57 35° SSW 20:24:17 45° SSE 20:28:32 10° E
Cosmos 2100 Rocket 4.0 20:18:21 10° N 20:24:43 89° WSW 20:31:01 10° S
Cosmos 1898 Rocket 3.4 20:20:30 10° NNW 20:25:44 69° WSW 20:31:01 10° S
Cosmos 836 Rocket 4.4 20:21:34 10° SSW 20:26:45 89° E 20:31:56 10° NNE
Cosmos 2123 Rocket 3.9 20:21:06 10° S 20:27:18 75° W 20:33:33 10° N
Cosmos 1459 Rocket 3.8 20:23:33 10° N 20:29:36 89° W 20:35:40 10° S
FALCON 9 DEB 4.4 20:30:42 26° NNW 20:30:42 26° NNW 20:32:33 10° NNE
Cosmos 2219 Rocket 2.2 20:26:46 24° SW 20:30:03 54° WNW 20:35:34 10° N
Skynet4D Del rocket 4.5 20:27:09 21° NW 20:30:25 43° NNE 20:36:01 10° E
Cosmos 858 Rocket 4.4 20:27:28 10° NNW 20:32:40 89° WSW 20:37:52 10° SSE
Cosmos 1515 3.5 20:30:31 10° S 20:34:17 72° W 20:38:03 10° N
Cosmos 1802 Rocket 4.1 20:28:16 10° N 20:34:33 79° E 20:40:54 10° S
NOSS 0 Rocket 4.4 20:28:54 10° S 20:34:59 63° ESE 20:41:06 10° NNE
GPS 2-18 Rocket1 3.0 20:34:22 42° WNW 20:35:34 84° NNE 20:39:29 10° ESE
DASH 3.1 20:34:44 19° NW 20:37:04 39° NNE 20:39:34 10° E
Okean 1 3.6 20:36:25 24° SW 20:38:27 42° W 20:42:17 10° NNW
FALCON 9 DEB 4.4 20:39:58 23° NNW 20:39:58 23° NNW 20:41:56 10° N
Hubble Space Telescope 2.3 20:43:04 19° NW 20:44:29 23° NNW 20:47:48 10° NE
Cosmos 1484 Rocket 3.2 20:40:58 10° N 20:44:44 42° WNW 20:48:29 10° SSW
Cosmos 1937 Rocket 3.4 20:40:35 10° NNW 20:45:38 61° WSW 20:50:41 10° S
Cosmos 2237 Rocket 2.9 20:43:44 10° S 20:49:15 57° ESE 20:54:47 10° NNE
Cosmos 1607 4.4 20:44:08 10° S 20:50:08 63° ESE 20:56:17 10° NNE
Cosmos 1703 Rocket 3.5 20:46:25 10° SSW 20:50:39 56° W 20:54:53 10° N
COSMOS 2428 3.2 20:46:16 10° SW 20:51:30 38° WNW 20:56:46 10° N
Cosmos 1980 4.1 20:46:10 10° S 20:51:45 67° ESE 20:57:21 10° NNE
Okean 1-7 2.9 20:48:37 10° SSW 20:52:49 59° W 20:57:00 10° N
Centaur D-1AR AC-48 3.2 20:51:16 19° WNW 20:54:28 57° N 21:10:06 10° ENE
ATLAS 2AS CENTAUR R/B 3.9 20:49:01 10° N 20:55:34 43° ENE 21:01:37 10° SE
ARIANE 44LP R/B 4.4 20:56:06 10° S 20:56:48 10° SSE 20:57:38 10° SSE
Meteor 1-31 Rocket 3.4 20:53:56 10° NNW 20:57:26 34° WNW 21:00:58 10° SW
SJ-12 3.9 20:56:25 10° N 21:00:30 63° WNW 21:04:35 10° SSW
Cosmos 2333 Rocket 3.3 20:57:20 14° WSW 21:00:38 23° WNW 21:05:06 10° NNW
Cosmos 1908 Rocket 3.7 21:01:08 10° N 21:05:36 81° E 21:10:03 10° S
Cosmos 1447 Rocket 4.5 20:59:49 10° S 21:06:09 79° W 21:12:25 10° N
Gbstr 26 Del rocket 4.4 21:02:56 10° NNW 21:10:22 74° NE 21:16:28 10° SE
ARGOS Delta rocket 4.0 21:07:19 10° NNE 21:12:06 83° E 21:17:10 10° S
ERS-2 3.5 21:11:43 10° SSW 21:14:23 19° W 21:17:04 10° NW
H-2A R/B 3.6 21:12:48 10° NNE 21:16:23 52° E 21:19:59 10° S
CZ-4B R/B 3.3 21:14:06 10° NNW 21:17:19 32° WNW 21:20:35 10° SW
ARIANE 5 R/B 4.5 21:01:28 10° WSW 21:18:15 26° SSW 21:22:36 10° SE
CZ-4B R/B 2.1 21:16:17 10° SSW 21:18:57 27° W 21:21:40 10° NW
SKYMED 2 4.2 21:17:14 10° SSE 21:21:30 61° ENE 21:25:46 10° N
Chandra Rocket (1) 2.5 21:19:56 10° WNW 21:29:08 77° SSW 21:32:25 10° ESE
CZ-3 R/B 3.1 21:13:26 10° SW 21:31:02 49° SSE 21:36:23 10° E
